Latest Weather Observations for Brisbane

IDQ60901

Issued at 6:41 pm EST Wednesday 22 February 2017 (issued every 10 minutes, with the page automatically refreshed every 10 minutes)

About weather observations | Map of Brisbane area stations | Latest observations for Brisbane area | Other Formats
Station Details ID: 040913 Name: BRISBANE Lat: -27.48 Lon: 153.04 Height: 8.13 m
Data from the previous 72 hours. | See also: Recent months at Brisbane
Date/Time
EST
Temp
°C
App
Temp
°C
Dew
Point
°C
Rel
Hum
%
Delta-T
°C
Wind Press
QNH
hPa
Press
MSL
hPa
Rain since
9am
mm
Dir  Spd
km/h
Gust
km/h
Spd
kts
Gust
kts
22/06:30pm 25.2 24.7 16.9 60 5.1 E 15 26 8 14 1017.9 1017.9 0.0
22/06:00pm 25.8 25.3 16.9 58 5.5 ESE 15 32 8 17 1017.6 1017.6 0.0
22/05:30pm 26.4 25.1 16.9 56 5.9 ESE 19 37 10 20 1017.3 1017.3 0.0
22/05:00pm 27.5 26.3 16.1 49 7.0 SE 17 33 9 18 1017.2 1017.2 0.0
22/04:30pm 27.8 26.6 16.1 49 7.2 ESE 17 33 9 18 1016.8 1016.8 0.0
22/04:00pm 28.2 27.0 16.1 47 7.5 ESE 17 33 9 18 1016.7 1016.7 0.0
22/03:30pm 28.6 27.1 16.2 47 7.7 ESE 19 32 10 17 1016.7 1016.7 0.0
22/03:00pm 28.8 27.2 15.0 43 8.4 ESE 17 30 9 16 1016.7 1016.7 0.0
22/02:30pm 28.0 26.5 16.3 49 7.2 ESE 19 30 10 16 1017.2 1017.2 0.0
22/02:00pm 29.2 28.4 16.0 44 8.2 ESE 15 26 8 14 1017.5 1017.5 0.0
22/01:30pm 28.6 28.2 16.2 47 7.7 ESE 13 24 7 13 1017.7 1017.7 0.0
22/01:00pm 28.6 27.8 16.2 47 7.7 E 15 26 8 14 1018.0 1018.0 0.0
22/12:30pm 28.9 28.1 16.1 46 7.9 ESE 15 28 8 15 1018.3 1018.3 0.0
22/12:00pm 28.4 27.8 15.7 46 7.8 ESE 13 22 7 12 1018.6 1018.6 0.0
22/11:30am 29.3 28.9 16.1 44 8.2 SE 13 26 7 14 1018.9 1018.9 0.0
22/11:00am 28.4 28.8 17.3 51 7.0 ESE 11 22 6 12 1019.1 1019.1 0.0
22/10:30am 28.4 28.6 17.6 52 6.8 SE 13 24 7 13 1019.2 1019.2 0.0
22/10:00am 28.2 28.5 18.0 54 6.5 SE 13 22 7 12 1019.5 1019.5 0.0
22/09:30am 27.4 27.4 18.1 57 5.9 SE 15 28 8 15 1019.7 1019.7 0.0
22/09:00am 26.6 26.8 17.7 58 5.6 SE 13 24 7 13 1019.9 1019.9 0.0
22/08:30am 27.0 28.8 18.8 60 5.3 SSE 7 19 4 10 1019.6 1019.6 0.0
22/08:00am 25.4 27.0 17.8 62 4.8 S 6 13 3 7 1019.5 1019.5 0.0
22/07:30am 24.3 25.7 17.3 65 4.3 S 6 11 3 6 1019.4 1019.4 0.0
22/07:00am 23.8 25.5 17.1 66 4.1 WSW 4 9 2 5 1019.2 1019.2 0.0
22/06:30am 23.4 25.6 17.4 69 3.7 SW 2 6 1 3 1019.0 1019.0 0.0
22/06:00am 22.8 24.4 16.8 69 3.7 SW 4 6 2 3 1018.7 1018.7 0.0
22/05:30am 22.9 24.2 17.1 70 3.6 S 6 7 3 4 1018.5 1018.5 0.0
22/05:00am 22.6 24.3 17.1 71 3.4 SW 4 6 2 3 1018.0 1018.0 0.0
22/04:30am 22.6 24.7 17.1 71 3.4 SW 2 6 1 3 1017.9 1017.9 0.0
22/04:00am 22.6 24.7 17.1 71 3.4 SW 2 6 1 3 1017.6 1017.6 0.0
22/03:30am 22.9 24.6 17.1 70 3.6 SW 4 7 2 4 1017.5 1017.5 0.0
22/03:00am 23.1 24.9 17.3 70 3.6 WSW 4 7 2 4 1017.5 1017.5 0.0
22/02:30am 23.3 25.1 17.3 69 3.7 WSW 4 7 2 4 1017.6 1017.6 0.0
22/02:00am 23.4 25.3 17.6 70 3.6 WSW 4 6 2 3 1017.8 1017.8 0.0
22/01:30am 23.8 25.6 17.5 68 3.9 SSW 4 9 2 5 1017.8 1017.8 0.0
22/01:00am 23.8 25.8 17.8 69 3.7 SW 4 7 2 4 1017.9 1017.9 0.0
22/12:30am 23.7 26.4 17.7 69 3.7 CALM 0 4 0 2 1018.0 1018.0 0.0
22/12:00am 23.8 25.9 17.3 67 4.0 SSE 2 4 1 2 1018.0 1018.0 0.0
 
Date/Time
EST
Temp
°C
App
Temp
°C
Dew
Point
°C
Rel
Hum
%
Delta-T
°C
Wind Press
QNH
hPa
Press
MSL
hPa
Rain since
9am
mm
Dir  Spd
km/h
Gust
km/h
Spd
kts
Gust
kts
21/11:30pm 24.3 26.1 17.5 66 4.2 SE 4 7 2 4 1018.3 1018.3 0.0
21/11:00pm 24.4 26.3 17.6 66 4.2 ESE 4 6 2 3 1018.4 1018.4 0.0
21/10:30pm 24.7 26.2 17.7 65 4.4 ESE 6 9 3 5 1018.5 1018.5 0.0
21/10:00pm 24.9 26.4 17.6 64 4.6 ESE 6 9 3 5 1018.9 1018.9 0.0
21/09:30pm 25.1 26.4 17.6 63 4.7 ESE 7 13 4 7 1019.1 1019.1 0.0
21/09:00pm 25.2 26.6 17.4 62 4.9 SE 6 13 3 7 1018.8 1018.8 0.0
21/08:30pm 25.4 26.5 17.1 60 5.2 ESE 7 11 4 6 1018.7 1018.7 0.0
21/08:00pm 25.6 26.2 16.7 58 5.5 ESE 9 19 5 10 1018.2 1018.2 0.0
21/07:30pm 25.9 26.4 16.5 56 5.8 ESE 9 17 5 9 1017.9 1017.9 0.0
21/07:00pm 26.2 26.6 16.2 54 6.1 ESE 9 17 5 9 1017.8 1017.8 0.0
21/06:30pm 26.3 27.2 16.5 54 6.0 ESE 7 15 4 8 1017.6 1017.6 0.0
21/06:00pm 26.6 26.9 17.9 59 5.5 ESE 13 26 7 14 1017.0 1017.0 0.0
21/05:30pm 27.3 28.3 18.6 59 5.6 ESE 11 22 6 12 1016.6 1016.6 0.0
21/05:00pm 27.9 28.5 18.6 57 6.0 ESE 13 22 7 12 1016.1 1016.1 0.0
21/04:30pm 28.6 29.1 18.4 54 6.5 ESE 13 22 7 12 1015.9 1015.9 0.0
21/04:00pm 28.9 28.1 18.1 52 6.9 ESE 19 28 10 15 1015.5 1015.5 0.0
21/03:30pm 28.9 28.7 18.4 53 6.7 ESE 17 30 9 16 1015.5 1015.5 0.0
21/03:00pm 30.1 30.4 18.8 50 7.3 SE 15 28 8 15 1015.3 1015.3 0.0
21/02:30pm 29.6 29.2 18.1 50 7.4 ESE 17 30 9 16 1015.4 1015.4 0.0
21/02:00pm 30.8 30.8 18.2 47 8.1 ESE 15 28 8 15 1015.4 1015.4 0.0
21/01:30pm 30.8 30.6 17.5 45 8.5 ENE 15 26 8 14 1015.4 1015.4 0.0
21/01:00pm 30.9 30.8 17.9 45 8.3 E 15 24 8 13 1015.4 1015.4 0.0
21/12:30pm 30.4 29.9 16.8 44 8.6 E 15 24 8 13 1015.6 1015.6 0.0
21/12:00pm 30.2 30.3 15.5 41 9.1 SE 9 19 5 10 1016.0 1016.0 0.0
21/11:30am 30.7 31.5 17.4 45 8.4 E 9 19 5 10 1016.1 1016.1 0.0
21/11:00am 31.3 32.7 18.6 46 8.2 ESE 9 19 5 10 1016.6 1016.6 0.0
21/10:30am 30.4 31.2 18.2 48 7.8 E 11 17 6 9 1016.9 1016.9 0.0
21/10:00am 29.8 31.7 18.9 52 7.0 SE 7 15 4 8 1017.2 1017.2 0.0
21/09:30am 29.6 32.0 19.6 55 6.5 ESE 6 9 3 5 1017.4 1017.4 0.0
21/09:00am 28.6 31.1 19.8 59 5.7 ESE 6 11 3 6 1017.3 1017.3 0.0
21/08:30am 27.3 29.6 19.4 62 5.1 S 6 11 3 6 1017.4 1017.4 0.0
21/08:00am 26.0 28.4 18.7 64 4.6 WSW 4 7 2 4 1017.2 1017.2 0.0
21/07:30am 25.1 27.0 18.5 67 4.2 SW 6 9 3 5 1017.0 1017.0 0.0
21/07:00am 24.1 25.7 17.8 68 3.9 SW 6 11 3 6 1016.7 1016.7 0.0
21/06:30am 23.8 26.2 18.0 70 3.6 SW 2 6 1 3 1016.3 1016.3 0.0
21/06:00am 22.6 24.6 17.9 75 2.9 SW 4 7 2 4 1015.8 1015.8 0.0
21/05:30am 22.4 24.6 18.4 78 2.5 SW 4 9 2 5 1015.1 1015.1 0.0
21/05:00am 22.2 25.1 19.0 82 2.0 WSW 2 4 1 2 1014.6 1014.6 0.0
21/04:30am 22.6 25.4 19.6 83 1.9 WSW 4 7 2 4 1014.3 1014.3 0.0
21/04:00am 22.6 25.7 19.4 82 2.0 SW 2 6 1 3 1014.2 1014.2 0.0
21/03:30am 23.1 25.6 19.9 82 2.1 SSW 6 7 3 4 1013.8 1013.8 0.0
21/03:00am 23.3 26.4 20.2 83 2.0 S 4 7 2 4 1013.8 1013.8 0.0
21/02:30am 23.5 27.0 20.4 83 2.0 S 2 6 1 3 1013.6 1013.6 0.0
21/02:00am 23.6 26.7 20.3 82 2.1 S 4 6 2 3 1013.7 1013.7 0.0
21/01:30am 23.6 27.1 20.3 82 2.1 SSE 2 6 1 3 1014.0 1014.0 0.0
21/01:00am 23.9 27.1 20.4 81 2.3 SSE 4 6 2 3 1014.3 1014.3 0.0
21/12:30am 23.7 27.6 20.4 82 2.1 CALM 0 0 0 0 1014.5 1014.5 0.0
21/12:00am 23.3 27.0 19.9 81 2.2 CALM 0 0 0 0 1014.4 1014.4 0.0
 
Date/Time
EST
Temp
°C
App
Temp
°C
Dew
Point
°C
Rel
Hum
%
Delta-T
°C
Wind Press
QNH
hPa
Press
MSL
hPa
Rain since
9am
mm
Dir  Spd
km/h
Gust
km/h
Spd
kts
Gust
kts
20/11:30pm 23.8 27.6 20.1 80 2.4 CALM 0 0 0 0 1014.7 1014.7 0.0
20/11:00pm 23.8 27.5 19.9 79 2.5 CALM 0 2 0 1 1014.6 1014.6 0.0
20/10:30pm 24.3 28.1 20.2 78 2.7 CALM 0 0 0 0 1014.7 1014.7 0.0
20/10:00pm 24.5 28.3 20.2 77 2.8 CALM 0 0 0 0 1014.7 1014.7 0.0
20/09:30pm 24.6 27.9 19.9 75 3.0 E 2 4 1 2 1014.6 1014.6 0.0
20/09:00pm 24.7 28.2 19.5 73 3.3 CALM 0 0 0 0 1014.3 1014.3 0.0
20/08:30pm 24.9 27.9 19.3 71 3.6 SE 2 4 1 2 1013.7 1013.7 0.0
20/08:00pm 25.4 27.9 19.1 68 4.0 ESE 4 7 2 4 1013.2 1013.2 0.0
20/07:30pm 25.7 27.5 18.4 64 4.6 ESE 6 9 3 5 1012.6 1012.6 0.0
20/07:00pm 26.1 27.6 18.0 61 5.1 E 7 11 4 6 1012.3 1012.3 0.0
20/06:30pm 26.8 27.4 16.7 54 6.3 E 9 15 5 8 1011.9 1011.9 0.0
20/06:00pm 27.6 27.3 14.3 44 8.0 ESE 9 15 5 8 1011.2 1011.2 0.0
20/05:30pm 28.2 27.5 13.3 40 8.8 ESE 9 15 5 8 1010.6 1010.5 0.0
20/05:00pm 29.4 28.0 12.3 34 10.0 E 11 20 6 11 1010.0 1009.9 0.0
20/04:30pm 30.0 29.2 14.1 37 9.6 E 11 20 6 11 1009.6 1009.5 0.0
20/04:00pm 30.6 30.3 15.5 40 9.3 E 11 20 6 11 1009.3 1009.2 0.0
20/03:30pm 30.9 30.3 14.5 37 10.0 E 11 20 6 11 1009.2 1009.1 0.0
20/03:00pm 31.1 30.1 14.7 37 10.0 E 13 20 7 11 1009.1 1009.0 0.0
20/02:30pm 31.4 30.7 13.2 33 10.9 E 9 19 5 10 1009.0 1008.9 0.0
20/02:00pm 31.2 30.2 13.5 34 10.6 E 11 20 6 11 1009.2 1009.1 0.0
20/01:30pm 29.6 29.4 14.6 40 9.1 ESE 9 15 5 8 1009.3 1009.2 0.0
20/01:00pm 31.0 32.0 17.7 45 8.5 E 9 15 5 8 1009.6 1009.5 0.0
20/12:30pm 30.8 32.1 17.5 45 8.5 ESE 7 15 4 8 1010.0 1009.9 0.0
20/12:00pm 29.8 31.3 16.6 45 8.3 SSE 4 11 2 6 1010.4 1010.3 0.0
20/11:30am 30.3 32.3 18.7 50 7.5 SE 6 13 3 7 1010.8 1010.8 0.0
20/11:00am 28.7 30.4 17.2 49 7.2 SSW 4 9 2 5 1011.2 1011.2 0.0
20/10:30am 29.0 30.7 18.1 51 7.0 SSW 6 13 3 7 1011.3 1011.3 0.0
20/10:00am 27.6 29.3 18.6 58 5.8 WSW 7 13 4 7 1011.4 1011.4 0.0
20/09:30am 26.9 29.0 19.3 63 4.9 W 7 17 4 9 1011.5 1011.5 0.0
20/09:00am 25.8 28.1 19.4 67 4.1 WSW 6 11 3 6 1011.7 1011.7 15.2
20/08:30am 24.8 27.1 19.4 72 3.5 WSW 6 9 3 5 1011.8 1011.8 15.2
20/08:00am 24.3 27.0 20.2 78 2.7 WSW 6 11 3 6 1011.5 1011.5 15.2
20/07:30am 23.8 26.4 20.1 80 2.4 WSW 6 9 3 5 1011.2 1011.2 15.2
20/07:00am 23.3 26.3 20.1 82 2.1 W 4 7 2 4 1010.9 1010.9 15.2
20/06:30am 23.0 26.8 20.9 88 1.4 SSE 2 6 1 3 1010.4 1010.3 15.2
20/06:00am 21.7 25.4 20.0 90 1.1 CALM 0 0 0 0 1009.7 1009.6 15.2
20/05:30am 21.9 25.2 20.0 89 1.2 SSW 2 7 1 4 1009.0 1008.9 15.2
20/05:00am 22.1 25.1 20.0 88 1.4 SW 4 7 2 4 1008.5 1008.4 15.2
20/04:30am 22.3 24.9 20.0 87 1.5 W 6 9 3 5 1008.2 1008.1 15.2
20/04:00am 22.5 24.9 20.0 86 1.6 WSW 7 15 4 8 1007.6 1007.5 15.2
20/03:30am 22.6 26.8 20.9 90 1.1 CALM 0 4 0 2 1007.0 1006.9 15.2
20/03:00am 22.6 26.6 20.5 88 1.4 CALM 0 4 0 2 1007.1 1007.0 15.2
20/02:30am 22.8 26.5 20.7 88 1.4 N 2 4 1 2 1007.0 1006.9 15.2
20/02:00am 22.8 25.7 20.7 88 1.4 WNW 6 9 3 5 1007.8 1007.7 15.2
20/01:30am 22.8 25.8 20.9 89 1.2 WSW 6 13 3 7 1008.2 1008.1 15.2
20/01:00am 22.9 25.9 20.8 88 1.4 SW 6 9 3 5 1008.6 1008.5 15.2
20/12:30am 22.9 26.1 21.2 90 1.1 WSW 6 9 3 5 1009.2 1009.1 15.2
20/12:00am 22.9 26.2 21.4 91 1.0 SW 6 11 3 6 1009.2 1009.1 15.2
 
Date/Time
EST
Temp
°C
App
Temp
°C
Dew
Point
°C
Rel
Hum
%
Delta-T
°C
Wind Press
QNH
hPa
Press
MSL
hPa
Rain since
9am
mm
Dir  Spd
km/h
Gust
km/h
Spd
kts
Gust
kts
19/11:30pm 22.3 25.2 20.6 90 1.1 W 6 9 3 5 1009.7 1009.6 15.2
19/11:00pm 22.3 25.6 20.0 87 1.5 WSW 2 4 1 2 1009.5 1009.4 15.0
19/10:30pm 23.1 26.1 20.8 87 1.5 NNW 6 9 3 5 1009.8 1009.7 14.0
19/10:00pm 24.7 28.3 22.4 87 1.5 NW 7 13 4 7 1009.6 1009.5 4.2
19/09:30pm 24.4 28.9 22.3 88 1.4 WNW 2 7 1 4 1009.0 1008.9 4.2
19/09:00pm 24.5 29.0 22.2 87 1.5 E 2 6 1 3 1009.0 1008.9 4.2
19/08:30pm 24.5 28.8 22.0 86 1.7 N 2 6 1 3 1008.8 1008.7 4.2
19/08:00pm 24.6 28.9 21.9 85 1.8 NE 2 4 1 2 1008.5 1008.4 4.2
19/07:30pm 24.5 29.6 22.6 89 1.3 CALM 0 4 0 2 1007.8 1007.7 4.2
19/07:00pm 24.6 28.8 22.5 88 1.4 NNE 4 9 2 5 1007.8 1007.7 4.2

Latest Capital City Observations: Canberra | Sydney | Melbourne | Brisbane | Adelaide | Perth | Hobart | Darwin

Other Formats:

Comma delimited format used in spreadsheet applications
http://www.bom.gov.au/fwo/IDQ60901/IDQ60901.94576.axf

JavaScript Object Notation format (JSON) in row-major order
http://www.bom.gov.au/fwo/IDQ60901/IDQ60901.94576.json